Location: Althorst
(53.6379°N, 10.7715°E)
Time: 16:33:48
(UTC+00:00)

Radarsat - Pass Details

Date: 10 December 2019
Orbit: 788 x 790 km, 98.6° (Epoch: 27 January)

Event Time Altitude Azimuth Distance (km) Brightness Sun altitude
Rises 16:17:16 0° 155° (SSE) 3,277 7.8 -10.9°
Reaches altitude 10° 16:19:35 10° 154° (SSE) 2,352 7.0 -11.3°
Maximum altitude 16:24:45 73° 71° (ENE) 832 4.5 -12.0°
Drops below altitude 10° 16:29:58 10° 347° (NNW) 2,369 6.9 -12.7°
Sets 16:32:18 0° 346° (NNW) 3,302 7.7 -13.0°
